This is the latest recevied weather packets stored in our database for station/object NC4J. If no packets are shown the sender has not sent any weather packets the latest 1 day(s).
| Time | Temp. | Humidity | Pressure | Rain* | Wind** | Luminosity | Snow |
|---|---|---|---|---|---|---|---|
| 1778056604 | 18.33° C | 55% | 1013.7 hPa | 0 mm | 0.45 m/s, 10° | 0 W/m² | - |
| 1778056301 | 18.33° C | 56% | 1013.9 hPa | 0 mm | 0.45 m/s, 82° | 0 W/m² | - |
| 1778055998 | 18.33° C | 56% | 1013.8 hPa | 0 mm | 0 m/s | 0 W/m² | - |
| 1778055693 | 18.33° C | 55% | 1013.9 hPa | 0 mm | 0 m/s | 0 W/m² | - |
| 1778055392 | 18.33° C | 55% | 1013.9 hPa | 0 mm | 0.45 m/s, 125° | 0 W/m² | - |
| 1778055089 | 18.33° C | 55% | 1013.7 hPa | 0 mm | 0 m/s | 0 W/m² | - |
| 1778054787 | 18.33° C | 54% | 1013.7 hPa | 0 mm | 0 m/s | 0 W/m² | - |
| 1778054483 | 18.33° C | 53% | 1013.9 hPa | 0 mm | 0.89 m/s, 0° | 0 W/m² | - |
| 1778054181 | 18.33° C | 53% | 1013.6 hPa | 0 mm | 0.45 m/s, 1° | 0 W/m² | - |
| 1778053877 | 18.33° C | 52% | 1013.6 hPa | 0 mm | 0.89 m/s, 10° | 0 W/m² | - |
| 1778053575 | 18.33° C | 52% | 1013.6 hPa | 0 mm | 0.89 m/s, 30° | 0 W/m² | - |
| 1778053273 | 18.33° C | 50% | 1013.8 hPa | 0 mm | 0.45 m/s, 53° | 0 W/m² | - |
| 1778052970 | 18.33° C | 50% | 1014.1 hPa | 0 mm | 0.89 m/s, 351° | 0 W/m² | - |
| 1778052667 | 18.33° C | 52% | 1014 hPa | 0 mm | 0.45 m/s, 2° | 0 W/m² | - |
| 1778052363 | 17.78° C | 52% | 1014.1 hPa | 0 mm | 0.45 m/s, 358° | 0 W/m² | - |
| 1778052062 | 17.78° C | 53% | 1014.4 hPa | 0 mm | 0.45 m/s, 0° | 0 W/m² | - |
| 1778051759 | 17.78° C | 53% | 1014.1 hPa | 0 mm | 0.45 m/s, 9° | 0 W/m² | - |
| 1778051457 | 17.78° C | 52% | 1014.1 hPa | 0 mm | 0.45 m/s, 355° | 0 W/m² | - |
| 1778051154 | 17.78° C | 53% | 1014.5 hPa | 0 mm | 0.45 m/s, 340° | 0 W/m² | - |
| 1778050851 | 17.78° C | 52% | 1014 hPa | 0 mm | 0 m/s | 0 W/m² | - |
| 1778050548 | 18.33° C | 51% | 1014.1 hPa | 0 mm | 0.45 m/s, 335° | 0 W/m² | - |
| 1778050245 | 18.33° C | 50% | 1014 hPa | 0 mm | 0.45 m/s, 53° | 0 W/m² | - |
| 1778049942 | 18.33° C | 50% | 1014.2 hPa | 0 mm | 0.45 m/s, 2° | 0 W/m² | - |
| 1778049643 | 18.89° C | 49% | 1014 hPa | 0 mm | 0 m/s | 0 W/m² | - |
| 1778049342 | 18.33° C | 49% | 1014.5 hPa | 0 mm | 0.89 m/s, 302° | 0 W/m² | - |
* Rain latest hour (hover to see other rain measurements)
** Current wind speed in m/s (hover to see current wind gust speed)